Simultaneous Nadir Overpasses (SNOs) Predictions

Prediction of SNOs between AQUA and METOP-A Satellite Orbit:

Table of predicted SNOs for the next 14.0 days since TLE Epoch: 4/26/2019
Index Date (AQUA) Time (AQUA) Lat,Lon (AQUA) SZA (AQUA ) Date (METOP-A) Time (METOP-A) Lat,Lon (METOP-A) SZA (METOP-A ) Distance(km) Time Diff (sec)
1 04/29/2019 15:31:23 74.60, -60.26 60.13 04/29/2019 15:30:16 74.55, -62.75 60.19 73.94 67
2 04/29/2019 16:20:58 -75.10, 106.11 119.35 04/29/2019 16:20:47 -75.08, 106.03 119.36 3.29 11
3 04/29/2019 17:10:27 75.16, -86.40 60.71 04/29/2019 17:11:25 75.15, -86.45 60.69 1.71 58
4 05/02/2019 11:05:37 74.58, 6.23 59.24 05/02/2019 11:04:30 74.52, 3.58 59.31 78.77 67
5 05/02/2019 11:55:13 -75.13, 172.48 120.17 05/02/2019 11:55:00 -75.10, 172.50 120.20 2.86 13
6 05/02/2019 12:44:42 75.19, -20.05 59.88 05/02/2019 12:45:38 75.17, -19.99 59.85 2.75 56
7 05/05/2019 06:39:50 74.51, 72.83 58.35 05/05/2019 06:38:45 74.44, 69.79 58.42 91.04 65
8 05/05/2019 07:29:27 -75.11,-121.04 121.02 05/05/2019 07:29:13 -75.12,-121.04 121.00 1.41 14
9 05/05/2019 08:18:56 75.17, 46.43 59.04 05/05/2019 08:19:51 75.19, 46.47 59.05 1.93 55
10 05/08/2019 02:14:02 74.45, 139.42 57.49 05/08/2019 02:12:58 74.41, 136.12 57.60 98.78 64
11 05/08/2019 03:03:41 -75.15, -54.70 121.76 05/08/2019 03:03:25 -75.14, -54.57 121.77 3.76 16
12 05/08/2019 03:53:09 75.16, 112.90 58.24 05/08/2019 03:54:04 75.16, 112.79 58.23 3.07 55




NCC Satellite Simultaneous Nadir Overpasses (SNOs) Prediction Service
